RYR176 EDDV-LIMJ

Flight info

Callsign RYR176
Flight time 1h 24m
Altitude 29000
Route WRB N850 GISEM/N0379F230 N850 BOMBI/N0403F270 N850 UBENO/N0380F230 N850 NATOR/N0428F330 N850 ODINA/N0358F190 M727 SRN M858 VOG
Aircraft A320/M-SDE3FGHIRWY/LB1

Departure

Time 2026-04-16 13:12
Airport Hannover Airport (EDDV)

Arrival

Time 2026-04-16 14:36
Airport Genoa Cristoforo Colombo Airport (LIMJ)
Time Latitude Longitude Altitude Speed Heading
2026-04-16 12:33 52.45712 9.68894 201 ft 0 kts 182°
2026-04-16 13:00 52.45713 9.68894 191 ft 1 kts 182°
2026-04-16 13:00 52.45729 9.68894 202 ft 3 kts 176°
2026-04-16 13:01 52.45749 9.68891 204 ft 3 kts 163°
2026-04-16 13:01 52.45767 9.68878 206 ft 3 kts 140°
2026-04-16 13:01 52.45779 9.68856 194 ft 2 kts 101°
2026-04-16 13:01 52.45780 9.68847 196 ft 0 kts 92°
2026-04-16 13:06 52.45780 9.68848 191 ft 0 kts 92°
2026-04-16 13:06 52.45779 9.68903 191 ft 9 kts 89°
2026-04-16 13:07 52.45800 9.69010 191 ft 11 kts 75°
2026-04-16 13:07 52.45760 9.69122 191 ft 14 kts 146°
2026-04-16 13:07 52.45651 9.69153 191 ft 17 kts 156°
2026-04-16 13:07 52.45616 9.69328 197 ft 18 kts 93°
2026-04-16 13:08 52.45611 9.69538 191 ft 20 kts 92°
2026-04-16 13:09 52.45611 9.69543 191 ft 20 kts 92°
2026-04-16 13:09 52.45604 9.69778 194 ft 21 kts 94°
2026-04-16 13:09 52.45598 9.70033 191 ft 23 kts 91°
2026-04-16 13:09 52.45588 9.70309 191 ft 25 kts 92°
2026-04-16 13:10 52.45581 9.70606 191 ft 27 kts 92°
2026-04-16 13:10 52.45574 9.70920 191 ft 29 kts 92°
2026-04-16 13:10 52.45505 9.71102 193 ft 18 kts 165°
2026-04-16 13:10 52.45435 9.71100 191 ft 10 kts 183°
2026-04-16 13:11 52.45407 9.71051 192 ft 6 kts 272°
2026-04-16 13:11 52.45408 9.70956 192 ft 16 kts 272°
2026-04-16 13:11 52.45424 9.70389 188 ft 83 kts 273°
2026-04-16 13:11 52.45458 9.69133 191 ft 135 kts 272°
2026-04-16 13:12 52.45505 9.67424 474 ft 152 kts 271°
2026-04-16 13:12 52.45573 9.65706 1150 ft 151 kts 271°
2026-04-16 13:12 52.45605 9.63926 1623 ft 166 kts 271°
2026-04-16 13:12 52.45656 9.61924 1994 ft 185 kts 272°
2026-04-16 13:13 52.45743 9.59666 2316 ft 213 kts 274°
2026-04-16 13:13 52.45662 9.57123 2852 ft 235 kts 252°
2026-04-16 13:13 52.44690 9.54930 3475 ft 255 kts 218°
2026-04-16 13:13 52.43000 9.53808 4464 ft 260 kts 198°
2026-04-16 13:14 52.41239 9.53081 5460 ft 262 kts 198°
2026-04-16 13:14 52.39466 9.52313 6421 ft 264 kts 198°
2026-04-16 13:14 52.37680 9.51509 7320 ft 268 kts 199°
2026-04-16 13:14 52.35882 9.50680 8204 ft 270 kts 199°
2026-04-16 13:15 52.34063 9.49824 9062 ft 273 kts 199°
2026-04-16 13:15 52.32225 9.48954 9910 ft 277 kts 199°
2026-04-16 13:15 52.30354 9.48066 10529 ft 288 kts 199°
2026-04-16 13:15 52.28357 9.47117 10748 ft 310 kts 199°
2026-04-16 13:16 52.26232 9.46107 11133 ft 324 kts 199°
2026-04-16 13:16 52.24046 9.45076 11777 ft 329 kts 199°
2026-04-16 13:16 52.21828 9.44037 12451 ft 334 kts 199°
2026-04-16 13:16 52.19548 9.42970 13133 ft 339 kts 199°
2026-04-16 13:17 52.17266 9.41901 13779 ft 344 kts 199°
2026-04-16 13:17 52.14955 9.40817 14400 ft 348 kts 199°
2026-04-16 13:17 52.12615 9.39720 15017 ft 351 kts 199°
2026-04-16 13:17 52.10259 9.38615 15630 ft 354 kts 200°
2026-04-16 13:18 52.07881 9.37503 16231 ft 357 kts 200°
2026-04-16 13:18 52.05478 9.36383 16831 ft 360 kts 200°
2026-04-16 13:18 52.03058 9.35256 17430 ft 364 kts 200°
2026-04-16 13:18 52.00613 9.34117 18044 ft 367 kts 200°
2026-04-16 13:19 51.98147 9.32969 18626 ft 370 kts 200°
2026-04-16 13:19 51.95657 9.31812 19181 ft 374 kts 200°
2026-04-16 13:19 51.93140 9.30644 19734 ft 377 kts 200°
2026-04-16 13:19 51.90617 9.29473 20293 ft 380 kts 200°
2026-04-16 13:20 51.88062 9.28289 20846 ft 383 kts 201°
2026-04-16 13:20 51.85490 9.27097 21379 ft 387 kts 201°
2026-04-16 13:20 51.82893 9.25895 21898 ft 390 kts 201°
2026-04-16 13:20 51.80271 9.24685 22410 ft 393 kts 201°
2026-04-16 13:21 51.77632 9.23468 22922 ft 396 kts 201°
2026-04-16 13:21 51.74970 9.22243 23439 ft 399 kts 201°
2026-04-16 13:21 51.72289 9.21010 23919 ft 403 kts 201°
2026-04-16 13:21 51.69584 9.19769 24344 ft 405 kts 201°
2026-04-16 13:22 51.66866 9.18526 24773 ft 407 kts 201°
2026-04-16 13:22 51.64128 9.17279 25195 ft 409 kts 201°
2026-04-16 13:22 51.61383 9.16029 25613 ft 412 kts 202°
2026-04-16 13:22 51.58621 9.14769 26019 ft 414 kts 202°
2026-04-16 13:23 51.55807 9.13482 26425 ft 415 kts 202°
2026-04-16 13:23 51.53024 9.12210 26812 ft 417 kts 202°
2026-04-16 13:23 51.50221 9.10940 27191 ft 420 kts 201°
2026-04-16 13:23 51.47373 9.09794 27573 ft 424 kts 199°
2026-04-16 13:24 51.44481 9.08780 27947 ft 427 kts 198°
2026-04-16 13:24 51.41558 9.07838 28321 ft 430 kts 198°
2026-04-16 13:24 51.38618 9.06917 28690 ft 432 kts 198°
2026-04-16 13:24 51.35665 9.05987 29064 ft 434 kts 198°
2026-04-16 13:25 51.32701 9.05028 29414 ft 436 kts 198°
2026-04-16 13:25 51.29726 9.04038 29768 ft 437 kts 199°
2026-04-16 13:25 51.26704 9.03013 30132 ft 439 kts 199°
2026-04-16 13:25 51.23709 9.01992 30449 ft 441 kts 199°
2026-04-16 13:26 51.20700 9.00964 30804 ft 442 kts 199°
2026-04-16 13:26 51.17697 8.99944 31225 ft 441 kts 199°
2026-04-16 13:26 51.14699 8.98932 31624 ft 440 kts 199°
2026-04-16 13:26 51.11803 8.97959 32020 ft 439 kts 199°
2026-04-16 13:27 51.08810 8.96985 32427 ft 440 kts 198°
2026-04-16 13:27 51.05802 8.96081 32833 ft 440 kts 198°
2026-04-16 13:27 51.02797 8.95176 33163 ft 440 kts 198°
2026-04-16 13:28 50.96824 8.93271 33230 ft 436 kts 199°
2026-04-16 13:28 50.90908 8.91291 33226 ft 434 kts 199°
2026-04-16 13:29 50.84985 8.89317 33221 ft 434 kts 199°
2026-04-16 13:29 50.79071 8.87360 33222 ft 434 kts 199°
2026-04-16 13:30 50.73179 8.85306 33222 ft 433 kts 200°
2026-04-16 13:30 50.67253 8.83225 33214 ft 433 kts 199°
2026-04-16 13:31 50.61281 8.81597 33217 ft 440 kts 192°
2026-04-16 13:31 50.55176 8.80715 33217 ft 441 kts 192°
2026-04-16 13:32 50.49069 8.79819 33216 ft 441 kts 192°
2026-04-16 13:32 50.42960 8.78918 33213 ft 441 kts 192°
2026-04-16 13:33 50.36851 8.78039 33211 ft 441 kts 192°
2026-04-16 13:33 50.30732 8.77153 33207 ft 441 kts 192°
2026-04-16 13:34 50.24623 8.76266 33199 ft 441 kts 192°
2026-04-16 13:34 50.18459 8.75384 33201 ft 442 kts 191°
2026-04-16 13:35 50.12332 8.74512 33197 ft 442 kts 191°
2026-04-16 13:35 50.06201 8.73628 33202 ft 443 kts 191°
2026-04-16 13:36 50.01098 8.72897 33204 ft 443 kts 191°
2026-04-16 13:36 49.94914 8.72014 33198 ft 443 kts 191°
2026-04-16 13:37 49.88767 8.71134 33195 ft 444 kts 191°
2026-04-16 13:37 49.82608 8.70260 33196 ft 445 kts 191°
2026-04-16 13:38 49.76445 8.69382 33195 ft 445 kts 191°
2026-04-16 13:38 49.70262 8.68513 33213 ft 446 kts 191°
2026-04-16 13:39 49.64065 8.67689 33227 ft 447 kts 190°
2026-04-16 13:39 49.57865 8.66865 33238 ft 447 kts 190°
2026-04-16 13:40 49.51601 8.66034 33243 ft 447 kts 190°
2026-04-16 13:40 49.45461 8.65216 33244 ft 447 kts 190°
2026-04-16 13:41 49.39254 8.64391 33240 ft 447 kts 190°
2026-04-16 13:41 49.33011 8.63557 33236 ft 447 kts 190°
2026-04-16 13:42 49.26813 8.62662 33226 ft 447 kts 191°
2026-04-16 13:42 49.20634 8.61683 33210 ft 447 kts 191°
2026-04-16 13:43 49.14451 8.60696 33216 ft 447 kts 191°
2026-04-16 13:43 49.08258 8.59744 33213 ft 447 kts 191°
2026-04-16 13:44 49.02062 8.58833 33215 ft 448 kts 191°
2026-04-16 13:44 48.95957 8.57350 33216 ft 443 kts 198°
2026-04-16 13:45 48.89928 8.55384 33220 ft 443 kts 197°
2026-04-16 13:45 48.83896 8.53423 33218 ft 444 kts 197°
2026-04-16 13:46 48.77856 8.51480 33221 ft 444 kts 197°
2026-04-16 13:46 48.71810 8.49546 33216 ft 444 kts 197°
2026-04-16 13:47 48.65840 8.47627 33221 ft 445 kts 197°
2026-04-16 13:47 48.59698 8.45647 33221 ft 445 kts 197°
2026-04-16 13:48 48.53832 8.43768 33223 ft 446 kts 197°
2026-04-16 13:48 48.47691 8.41819 33226 ft 446 kts 197°
2026-04-16 13:49 48.41619 8.39903 33233 ft 447 kts 197°
2026-04-16 13:49 48.35530 8.37977 33233 ft 447 kts 197°
2026-04-16 13:50 48.29432 8.36050 33240 ft 448 kts 197°
2026-04-16 13:50 48.23333 8.34119 33244 ft 448 kts 197°
2026-04-16 13:51 48.17166 8.32642 33241 ft 454 kts 186°
2026-04-16 13:51 48.10829 8.33618 33244 ft 461 kts 174°
2026-04-16 13:52 48.04495 8.35163 33247 ft 461 kts 174°
2026-04-16 13:52 47.98151 8.36699 33254 ft 462 kts 174°
2026-04-16 13:53 47.91804 8.38228 33255 ft 462 kts 174°
2026-04-16 13:53 47.85466 8.39754 33255 ft 462 kts 174°
2026-04-16 13:54 47.79160 8.41269 33255 ft 462 kts 174°
2026-04-16 13:54 47.72854 8.42778 33255 ft 462 kts 174°
2026-04-16 13:55 47.66612 8.44196 33237 ft 461 kts 176°
2026-04-16 13:55 47.60250 8.45177 33237 ft 460 kts 179°
2026-04-16 13:56 47.53870 8.45960 33235 ft 460 kts 179°
2026-04-16 13:56 47.47797 8.46771 33238 ft 461 kts 178°
2026-04-16 13:57 47.41404 8.47718 33236 ft 461 kts 177°
2026-04-16 13:57 47.35030 8.48683 33239 ft 462 kts 177°
2026-04-16 13:58 47.25435 8.50089 33241 ft 462 kts 178°
2026-04-16 13:58 47.19035 8.51019 33245 ft 462 kts 177°
2026-04-16 13:59 47.12644 8.51950 33246 ft 462 kts 177°
2026-04-16 13:59 47.06304 8.52870 33245 ft 462 kts 177°
2026-04-16 14:00 46.99863 8.53795 33241 ft 462 kts 177°
2026-04-16 14:00 46.93552 8.54708 33243 ft 463 kts 177°
2026-04-16 14:01 46.87120 8.55633 33234 ft 463 kts 177°
2026-04-16 14:01 46.80879 8.56525 33234 ft 463 kts 177°
2026-04-16 14:02 46.74608 8.57429 33226 ft 463 kts 176°
2026-04-16 14:02 46.68308 8.58336 33216 ft 463 kts 177°
2026-04-16 14:03 46.61928 8.59241 33201 ft 464 kts 176°
2026-04-16 14:03 46.55491 8.60148 33191 ft 464 kts 176°
2026-04-16 14:04 46.49082 8.61063 33178 ft 464 kts 176°
2026-04-16 14:04 46.42705 8.61967 33165 ft 464 kts 176°
2026-04-16 14:05 46.36242 8.62879 33140 ft 464 kts 176°
2026-04-16 14:05 46.29764 8.63787 33130 ft 464 kts 176°
2026-04-16 14:06 46.24419 8.64539 33121 ft 464 kts 176°
2026-04-16 14:06 46.17993 8.65432 33126 ft 464 kts 176°
2026-04-16 14:07 46.11591 8.66661 33117 ft 465 kts 166°
2026-04-16 14:07 46.05690 8.70217 33108 ft 466 kts 150°
2026-04-16 14:08 46.00004 8.74712 33105 ft 466 kts 151°
2026-04-16 14:08 45.97111 8.76964 33108 ft 467 kts 151°
2026-04-16 14:09 45.95604 8.78132 32756 ft 461 kts 151°
2026-04-16 14:09 45.92887 8.80237 31897 ft 469 kts 151°
2026-04-16 14:09 45.90050 8.82441 31743 ft 457 kts 151°
2026-04-16 14:09 45.87273 8.84598 31389 ft 450 kts 151°
2026-04-16 14:10 45.84534 8.86727 31018 ft 444 kts 151°
2026-04-16 14:10 45.81840 8.88822 31122 ft 443 kts 151°
2026-04-16 14:10 45.76396 8.93047 31113 ft 446 kts 151°
2026-04-16 14:11 45.70931 8.97273 31117 ft 447 kts 151°
2026-04-16 14:11 45.65266 9.00879 31114 ft 447 kts 166°
2026-04-16 14:12 45.59086 9.01748 31111 ft 444 kts 185°
2026-04-16 14:12 45.55997 9.01502 30758 ft 441 kts 184°
2026-04-16 14:12 45.52951 9.01268 30320 ft 437 kts 184°
2026-04-16 14:13 45.49928 9.01041 29841 ft 434 kts 184°
2026-04-16 14:13 45.46926 9.00816 29342 ft 430 kts 184°
2026-04-16 14:13 45.43955 9.00595 28867 ft 426 kts 184°
2026-04-16 14:13 45.41000 9.00373 28403 ft 423 kts 184°
2026-04-16 14:14 45.38074 9.00151 27958 ft 420 kts 184°
2026-04-16 14:14 45.35166 8.99928 27528 ft 417 kts 184°
2026-04-16 14:14 45.32278 8.99707 27112 ft 414 kts 184°
2026-04-16 14:14 45.29410 8.99492 26712 ft 411 kts 184°
2026-04-16 14:15 45.26560 8.99280 26342 ft 409 kts 184°
2026-04-16 14:15 45.23728 8.99069 25965 ft 406 kts 184°
2026-04-16 14:15 45.20910 8.98858 25604 ft 404 kts 184°
2026-04-16 14:15 45.18071 8.98644 25229 ft 402 kts 184°
2026-04-16 14:16 45.15290 8.98435 24861 ft 400 kts 184°
2026-04-16 14:16 45.12521 8.98227 24489 ft 397 kts 184°
2026-04-16 14:16 45.09818 8.98024 24119 ft 395 kts 184°
2026-04-16 14:16 45.07029 8.97814 23741 ft 393 kts 184°
2026-04-16 14:17 45.04303 8.97608 23304 ft 391 kts 184°
2026-04-16 14:17 45.01599 8.97402 22871 ft 388 kts 184°
2026-04-16 14:17 44.98912 8.97196 22438 ft 385 kts 184°
2026-04-16 14:17 44.96242 8.97131 22007 ft 383 kts 176°
2026-04-16 14:18 44.93609 8.97594 21575 ft 380 kts 172°
2026-04-16 14:18 44.90999 8.98146 21137 ft 378 kts 172°
2026-04-16 14:18 44.88409 8.98698 20716 ft 375 kts 172°
2026-04-16 14:18 44.85836 8.99246 20309 ft 373 kts 172°
2026-04-16 14:19 44.83277 8.99785 20110 ft 372 kts 172°
2026-04-16 14:19 44.80721 9.00320 20130 ft 372 kts 172°
2026-04-16 14:19 44.79818 9.00508 20129 ft 373 kts 172°
2026-04-16 14:19 44.78764 9.00728 20124 ft 370 kts 172°
2026-04-16 14:20 44.76221 9.01275 20130 ft 370 kts 172°
2026-04-16 14:20 44.73658 9.01808 20129 ft 372 kts 172°
2026-04-16 14:20 44.71160 9.02318 20127 ft 372 kts 172°
2026-04-16 14:20 44.68555 9.02765 20126 ft 372 kts 178°
2026-04-16 14:21 44.65984 9.02517 20125 ft 371 kts 192°
2026-04-16 14:21 44.63521 9.01465 20121 ft 369 kts 205°
2026-04-16 14:21 44.61291 8.99708 20122 ft 368 kts 214°
2026-04-16 14:21 44.59099 8.97851 20114 ft 369 kts 206°
2026-04-16 14:22 44.56650 8.96866 19804 ft 367 kts 185°
2026-04-16 14:22 44.54107 8.96973 19369 ft 365 kts 174°
2026-04-16 14:22 44.51584 8.97351 18952 ft 364 kts 174°
2026-04-16 14:22 44.49074 8.97744 18561 ft 362 kts 174°
2026-04-16 14:23 44.46582 8.98141 18154 ft 359 kts 173°
2026-04-16 14:23 44.44124 8.98535 17489 ft 354 kts 174°
2026-04-16 14:23 44.41688 8.98919 16765 ft 350 kts 173°
2026-04-16 14:23 44.39288 8.99292 16081 ft 346 kts 173°
2026-04-16 14:24 44.36909 8.99657 15411 ft 342 kts 174°
2026-04-16 14:24 44.34558 9.00014 14755 ft 338 kts 174°
2026-04-16 14:24 44.32237 9.00365 14104 ft 334 kts 174°
2026-04-16 14:24 44.29942 9.00708 13420 ft 330 kts 174°
2026-04-16 14:25 44.27670 9.01046 12730 ft 326 kts 174°
2026-04-16 14:25 44.25424 9.01379 12077 ft 322 kts 174°
2026-04-16 14:25 44.23211 9.01721 11432 ft 318 kts 170°
2026-04-16 14:25 44.21163 9.02746 10817 ft 312 kts 146°
2026-04-16 14:26 44.19660 9.04820 10389 ft 299 kts 120°
2026-04-16 14:26 44.18972 9.07463 9959 ft 288 kts 95°
2026-04-16 14:26 44.19136 9.10199 9373 ft 283 kts 76°
2026-04-16 14:26 44.19623 9.12843 8763 ft 281 kts 74°
2026-04-16 14:27 44.20143 9.15457 8193 ft 279 kts 73°
2026-04-16 14:27 44.20666 9.18046 7638 ft 276 kts 74°
2026-04-16 14:27 44.21187 9.20607 7087 ft 274 kts 74°
2026-04-16 14:27 44.21709 9.23160 6675 ft 274 kts 73°
2026-04-16 14:28 44.22229 9.25698 6372 ft 271 kts 73°
2026-04-16 14:28 44.22746 9.28221 6057 ft 270 kts 73°
2026-04-16 14:28 44.23565 9.30544 5731 ft 267 kts 49°
2026-04-16 14:28 44.25029 9.32092 5402 ft 266 kts 25°
2026-04-16 14:29 44.26806 9.32741 5072 ft 265 kts
2026-04-16 14:29 44.28620 9.32405 4826 ft 263 kts 341°
2026-04-16 14:29 44.30213 9.31139 4685 ft 267 kts 319°
2026-04-16 14:29 44.31380 9.29086 4570 ft 268 kts 297°
2026-04-16 14:30 44.32004 9.26643 4512 ft 268 kts 288°
2026-04-16 14:30 44.32582 9.24164 4513 ft 266 kts 288°
2026-04-16 14:30 44.33119 9.21762 4514 ft 252 kts 287°
2026-04-16 14:30 44.33617 9.19477 4512 ft 240 kts 288°
2026-04-16 14:31 44.34089 9.17309 4512 ft 226 kts 287°
2026-04-16 14:31 44.34535 9.15261 4434 ft 217 kts 288°
2026-04-16 14:31 44.34970 9.13260 4186 ft 214 kts 287°
2026-04-16 14:31 44.35397 9.11298 3921 ft 209 kts 287°
2026-04-16 14:32 44.35816 9.09369 3609 ft 205 kts 288°
2026-04-16 14:32 44.36226 9.07481 3332 ft 201 kts 287°
2026-04-16 14:32 44.36627 9.05632 3054 ft 197 kts 288°
2026-04-16 14:32 44.37020 9.03817 2784 ft 193 kts 288°
2026-04-16 14:33 44.37406 9.02037 2515 ft 190 kts 287°
2026-04-16 14:33 44.37786 9.00281 2252 ft 188 kts 287°
2026-04-16 14:33 44.38160 8.98550 1991 ft 185 kts 287°
2026-04-16 14:33 44.38523 8.96870 1728 ft 175 kts 287°
2026-04-16 14:34 44.38856 8.95323 1508 ft 157 kts 287°
2026-04-16 14:34 44.39160 8.93914 1290 ft 148 kts 287°
2026-04-16 14:34 44.39456 8.92546 1079 ft 146 kts 287°
2026-04-16 14:34 44.39754 8.91194 884 ft 145 kts 287°
2026-04-16 14:35 44.40056 8.89856 685 ft 144 kts 286°
2026-04-16 14:35 44.40346 8.88528 480 ft 142 kts 285°
2026-04-16 14:35 44.40610 8.87205 295 ft 140 kts 282°
2026-04-16 14:35 44.40864 8.85886 95 ft 140 kts 283°
2026-04-16 14:36 44.41108 8.84630 21 ft 119 kts 285°
2026-04-16 14:36 44.41282 8.83743 20 ft 70 kts 285°
2026-04-16 14:36 44.41350 8.83401 23 ft 48 kts 285°
2026-04-16 14:36 44.41452 8.83117 24 ft 22 kts 318°
2026-04-16 14:37 44.41547 8.83178 26 ft 19 kts 99°
2026-04-16 14:37 44.41522 8.83301 24 ft 14 kts 106°
2026-04-16 14:37 44.41491 8.83458 22 ft 19 kts 105°
2026-04-16 14:37 44.41452 8.83648 20 ft 22 kts 106°
2026-04-16 14:38 44.41410 8.83870 21 ft 25 kts 107°
2026-04-16 14:38 44.41358 8.84126 16 ft 29 kts 108°
2026-04-16 14:38 44.41313 8.84347 18 ft 10 kts 104°
2026-04-16 14:38 44.41333 8.84445 18 ft 12 kts 51°
2026-04-16 14:39 44.41392 8.84550 18 ft 15 kts 52°
2026-04-16 14:39 44.41461 8.84677 18 ft 18 kts 52°
2026-04-16 14:39 44.41532 8.84805 18 ft 13 kts 52°
2026-04-16 14:39 44.41551 8.84896 18 ft 6 kts 109°
2026-04-16 14:40 44.41539 8.84953 20 ft 0 kts 105°